Home > Time Zones > World Clock > Weather > India > Theni > Past weeks

Flag for India Weather past 2 weeks in Theni, Tamil Nadu, India

Now
75 °F

Partly cloudy.


Feels Like: 75 °F
Forecast: 74 / 89 °F
Wind: 10 mph from Southwest

Location: Coimbatore / Peelamedu

Current Time: Aug 24, 2014 at 1:21:49 AM

Latest Report: Aug 24, 2014 at 12:30 AM


Visibility: 3 mi

Pressure: 29.80 "Hg

Humidity: 89%

Dew point: 72 °F

Location of TheniLocation

Historic Weather in Theni — Graph

°F

Theni temperature yesterday

Maximum temperature yesterday: 86 °F (at 12:30 PM)
Minimum temperature yesterday: 73 °F (at 5:30 AM)
Average temperature yesterday: 79 °F

Past Weeks' High & Low Weather Summary

 TemperatureHumidityPressure
High95 °F (Aug 22, 2:00 PM)100% (Aug 23, 5:30 AM)29.95 "Hg (Aug 23, 5:30 AM)
Low72 °F (Aug 9, 6:30 AM)39% (Aug 22, 2:00 PM)29.65 "Hg (Aug 21, 4:30 PM)
Average80 °F75%29.84 "Hg
* Reported Aug 8 11:30 PM — Aug 23 11:30 PM, Theni, Weather by CustomWeather, © 2014

Note: Actual official high and low records may vary slightly from our data, if they occured in-between our weather recording intervals... More about our weather records

Advertising

Theni weather history for previous 24 hours

 ConditionsComfort  
Time TempWeatherWind HumidityBarometerVisibility
11:30 PM
Aug 23
75 °FPartly cloudy.9 mph89%29.83 "Hg3 mi
11:00 PM75 °FPartly cloudy.13 mph89%29.83 "Hg3 mi
10:30 PM75 °FPartly cloudy.8 mph89%29.86 "Hg3 mi
10:00 PM75 °FPartly cloudy.8 mph89%29.86 "Hg3 mi
9:30 PM77 °FPartly cloudy.12 mph83%29.86 "Hg3 mi
9:00 PM77 °FPartly cloudy.15 mph79%29.86 "Hg3 mi
8:30 PM77 °FPartly cloudy.15 mph79%29.83 "Hg3 mi
7:30 PM77 °FPartly cloudy.12 mph79%29.80 "Hg4 mi
7:00 PM77 °FBroken clouds.15 mph83%29.80 "Hg4 mi
6:30 PM77 °FPartly sunny.13 mph83%29.77 "Hg4 mi
5:30 PM81 °FPartly sunny.13 mph74%29.77 "Hg4 mi
5:00 PM82 °FPartly sunny.13 mph62%29.74 "Hg4 mi
4:30 PM84 °FPartly sunny.13 mph58%29.74 "Hg5 mi
4:00 PM86 °FPartly sunny.13 mph59%29.74 "Hg5 mi
3:30 PM86 °FPartly sunny.15 mph59%29.74 "Hg5 mi
3:00 PM84 °FPartly sunny.12 mph58%29.74 "Hg5 mi
2:30 PM84 °FPartly sunny.12 mph58%29.77 "Hg5 mi
2:00 PM84 °FPartly sunny.12 mph62%29.77 "Hg5 mi
1:30 PM84 °FScattered clouds.13 mph62%29.77 "Hg5 mi
1:00 PM86 °FScattered clouds.16 mph59%29.80 "Hg5 mi
12:30 PM86 °FScattered clouds.14 mph62%29.80 "Hg4 mi
12:00 PM84 °FBroken clouds.13 mph62%29.83 "Hg4 mi
11:30 AM84 °FPartly sunny.12 mph62%29.83 "Hg4 mi
11:00 AM84 °FPartly sunny.9 mph66%29.83 "Hg4 mi
10:30 AM82 °FPartly sunny.9 mph74%29.83 "Hg3 mi
10:00 AM82 °FBroken clouds.5 mph74%29.86 "Hg3 mi
9:30 AM81 °FScattered clouds.No wind79%29.83 "Hg3 mi
8:30 AM77 °FPartly sunny.2 mph89%29.83 "Hg3 mi
8:00 AM77 °FPartly sunny.No wind89%29.83 "Hg2 mi
7:30 AM75 °FPartly sunny.No wind94%29.80 "Hg2 mi
7:00 AM73 °FBroken clouds.2 mph100%29.80 "Hg2 mi
6:30 AM73 °FPassing clouds.5 mph94%29.77 "Hg2 mi
6:00 AM73 °FPassing clouds.2 mph100%29.77 "Hg3 mi
5:30 AM73 °FPassing clouds.3 mph100%29.77 "Hg3 mi
5:00 AM75 °FPassing clouds.6 mph94%29.77 "Hg3 mi
4:30 AM75 °FPassing clouds.3 mph94%29.77 "Hg3 mi
4:00 AM75 °FPassing clouds.3 mph94%29.77 "Hg3 mi
3:30 AM75 °FPartly cloudy.2 mph94%29.74 "Hg3 mi
3:00 AM75 °FPartly cloudy.3 mph94%29.74 "Hg3 mi
2:30 AM75 °FPartly cloudy.N/A94%29.77 "Hg3 mi
Weather by CustomWeather, © 2014

See weather overviewHow to use our weather pages